Location: Joffre
(52.3362°N, 113.5373°W)
Time: 14:17:32
(UTC+00:00)

Envisat - Pass Details

Date: 05 December 2021
Orbit: 764 x 766 km, 98.2° (Epoch: 28 January)

Event Time Altitude Azimuth Distance (km) Brightness Sun altitude
Rises 11:34:02 0° 23° (NNE) 3,247 6.6 -34.4°
Reaches altitude 10° 11:36:50 10° 38° (NE) 2,316 5.9 -34.0°
Maximum altitude 11:40:51 23° 90° (E) 1,589 5.2 -33.3°
Drops below altitude 10° 11:44:51 10° 143° (SE) 2,301 5.8 -32.7°
Sets 11:47:36 0° 157° (SSE) 3,221 6.4 -32.3°
